ISIS 1 DEB

Satellite information

Favourite Embed

Satellite Type and Status

DEBRISIN ORBIT

Key statistics

Satellite ISIS 1 DEB at a glance.

Uptime

20772

Days in orbit

Revolutions

≈ 12.3

Per day

Orbit

HEO

HEO

Inclination

88.4

Latest

Satellite identification and parameters

Extended collection of information and parameters for ISIS 1 DEB.

Object identification

Identified? True

Debris? True

Object name: ISIS 1 DEB

International designator: 1969-009C

Object number (NORAD): 31999

Object ID (CCSDS): 31999

Country: CANADA (CA)

Current information (Y/N): Y

RCS size: SMALL

Orbital parameters

Period: 117.123 minutes

Inclination: 88.3973 deg

SMA: 7929.654 km

Apoapsis: 2548.076 km

Periapsis: 554.962 km

RAAN: 116.9195 deg

Eccentricy: 0.12567473

Argument of periapsis: 212.1448 deg

Mean anomaly: 139.668 deg

Mean motion: 12.29479868 rev/day

Mean motion (dot): 0.00053069 rev/day2

B* drag term: 0.025916322 1/REarth

Two-line elements (TLE)

Creation date: Dec. 12, 2025, 3:16 a.m.

Reference frame: TEME

Reference center: EARTH

Epoch: Dec. 11, 2025, 7:26 p.m. UTC

TLE line 0: 0 ISIS 1 DEB

TLE line 1: 1 31999U 69009C 25345.81027030 .00053069 00000-0 25916-1 0 9992

TLE line 2: 2 31999 88.3973 116.9195 1256747 212.1448 139.6680 12.29479868785804

Live tracking on map

Real-time ground track for satellite ISIS 1 DEB.

In-orbit conjunctions

There are no conjunctions computed for ISIS 1 DEB, at the moment. Check back to stay up to date, as we update our databases every day.

Go to all conjunctions

Associated space launch

ISIS 1 (International Satellite for Ionosphere Studies) was an ionospheric observatory instrumented with sweep- and fixed-frequency ionosondes, a VLF receiver, energetic and soft particle detectors, an ion mass spectrometer, an electrostatic probe, an electrostatic analyzer, a beacon transmitter, and a cosmic noise experiment.

ISIS 1 DEB was lifted into orbit during the mission ‘Thor Delta E1 | Isis 1’, on board a Thor Delta E1 space rocket.

The launch took place on Jan. 30, 1969, 6:46 a.m. from Space Launch Complex 2E.

For more information about the launch, click the button.

Launch to space Thor Delta E1 | Isis 1
Thor Delta E1 | Isis 1

Agency: N/A

Status: Launch Successful

Launch date: Jan. 30, 1969, 6:46 a.m. UTC

Rocket: Thor Delta E1

Launch pad: Space Launch Complex 2E

Location: Vandenberg SFB, CA, USA

...

Latest news about this satellite

There are no fresh news available about this satellite. Check back as we update our databases every day.


Newsletter sign-up

Weekly statistics, charts and insights to help you stay on top of the space industry.